Location: *
(50.8667°S, 179.2667°W)
Time: 03:21:35
(UTC+00:00)

IRS-1D - Pass Details

Date: 02 October 2023
Orbit: 738 x 815 km, 98.7° (Epoch: 01 December)

Event Time Altitude Azimuth Distance (km) Brightness Sun altitude
Exits shadow 13:50:12 60° 114° (ESE) 867 3.9 -29.4°
Drops below altitude 10° 13:55:04 10° 189° (S) 2,289 6.4 -29.0°
Sets 13:57:24 0° 192° (SSW) 3,218 7.3 -28.7°
